Regional Weather Roundup
Issued by NWS

Home | Current Version | Previous Version | Text Only | Print | Product List | Glossary Off
Versions: 1 2 3 4 5 6 7 8 9 10 11 12 13 14 15 16 17 18 19 20 21 22 23 24 25 26 27 28 29 30 31 32 33 34 35 36 37 38 39 40 41 42 43 44 45 46 47 48 49 50

230
ASUS43 KLSX 100257
RWRMO

WEATHER SUMMARY FOR MISSOURI
NATIONAL WEATHER SERVICE SPRINGFIELD MO
900 PM CST FRI DEC 09 2016

NOTE: "FAIR" INDICATES FEW OR NO CLOUDS BELOW 12,000 FEET WITH NO
       SIGNIFICANT WEATHER AND/OR OBSTRUCTIONS TO VISIBILITY.
       CURRENT SKY AND/OR WEATHER CONDITIONS ARE NOT AVAILABLE FOR
       CHILLICOTHE AND FARMINGTON.

MOZ001>031-035>038-043-044-053-054-100400-
...NORTHERN AND WESTERN MISSOURI...

CITY           SKY/WX    TMP DP  RH WIND       PRES   REMARKS
KANSAS CTY INT CLOUDY    26  11  52 SE5       30.52S WCI  20
LEE`S SUMMIT   CLOUDY    27  10  49 SE3       30.52S
ST JOSEPH      CLOUDY    26  11  52 SE5       30.54S WCI  20
CHILLICOTHE      N/A     25   9  50 CALM      30.57R

$$
MOZ066>068-077>081-088>096-101>105-100400-
...SOUTHWEST MISSOURI...

CITY           SKY/WX    TMP DP  RH WIND       PRES   REMARKS
SPRINGFIELD    CLOUDY    30  14  51 SE5       30.50F WCI  25
JOPLIN         CLOUDY    31  15  52 CALM      30.53S
BRANSON        CLOUDY    28  16  59 SE3       30.53R

$$
MOZ032>034-039>042-045>050-055>058-069>072-100400-
...CENTRAL MISSOURI...

CITY           SKY/WX    TMP DP  RH WIND       PRES   REMARKS
COLUMBIA       NOT AVBL
JEFFERSON CITY CLOUDY    25  15  66 CALM      30.57F
ROLLA          CLOUDY    19  10  68 E3        30.52F
SEDALIA        CLOUDY    26  10  50 E5        30.54F WCI  20
WARRENSBURG    CLOUDY    28  12  50 E3        30.54S

$$
MOZ051-052-059>065-100400-
...EAST CENTRAL MISSOURI...

CITY           SKY/WX    TMP DP  RH WIND       PRES   REMARKS
ST LOUIS INTL  PTCLDY    24  13  62 W3        30.59R

$$
MOZ072>076-082>087-097>100-106>115-100400-
...SOUTH CENTRAL AND SOUTHEAST MISSOURI...

CITY           SKY/WX    TMP DP  RH WIND       PRES   REMARKS
CAPE GIRARDEAU CLEAR     24  18  77 CALM      30.59S
POPLAR BLUFF   CLEAR     24  20  84 CALM      30.59S
WEST PLAINS    CLOUDY    26  15  63 CALM      30.55R

$$



USA.gov is the U.S. government's official web portal to all federal, state and local government web resources and services.